ATLAS 5 CENTAUR R/B, 41623

Orbit data source: Space-Track

ATLAS 5 CENTAUR R/B, 41623 is space debris in HEO originally from a launch on Fri, 24 Jun 2016 UTC launched from the Air Force Eastern Test Range (AFETR). Debris objects in space refer to the collection of defunct objects orbiting the Earth. Examples of debris include non-operational satellites, rocket bodies, and fragments generated from explosions, collisions, or faulty payload assembly.

Loading next visibility...
Identifier
41623, 2016-041B
Orbit
HEO
Country
Flag of USUS
Related business
Manufacturer
LMSS Denver
Mission
Spacecraft
Bus & Motor
CENTAUR SEC, RL10C-1
Mass
~2,020 kg wet, 2,020 kg dry
Launch date (UTC)
2016-06-24 (10 years ago)
Launch vehicle
Unknown
Launch site
Air Force Eastern Test Range (AFETR)
Object type
Payload
Rocket body
Debris
Shape & HBR
Cyl + 1 Nozzle, 5.8 m
Radar Cross Section
32.260 m², Large (>1 m²)

Expand to show TLE details & history
Last TLE update: 21 hours ago

TLE from 21 hours ago
0 ATLAS 5 CENTAUR R/B
1 41623U 16041B   26094.83188292 -.00000270  00000-0  00000-0 0  9990
2 41623  19.2681  23.1195 6088539 303.6208  12.5348  2.09540059 74869
Epoch: 2026-04-04T19:57Z
TLE epoch observation values (Epoch: 2026-04-04T19:57:54.684Z)
Latitude
-0.00001°
Longitude
-109.53319°
Altitude
5,762.172 km
Speed
7.086 km/s
True Right ascension
01h 32m 21s
True Declination
0° 00' 00"
Sunlit
Object was in daylight at epoch
Visualization orbit readout
Latitude
Unknown
Longitude
Unknown
Altitude
Unknown
Speed
Unknown
Apparent Right ascension
Unknown
Apparent Declination
Unknown
Sunlit
N/A
Visualization observer readout
Local Sidereal Time
23:16:32
Azimuth
Unknown
Elevation
Unknown
Doppler factor
Unknown
Orbital elements
Apogee altitude
35,128.943 km
Perigee altitude
3,713.104 km
Semi-major axis
25,799.16 km
Eccentricity
0.60885
Inclination
19.2681°
RAAN
23.1195°
Arg. of periapsis
303.6208°
True anomaly
56.96065°
Mean anomaly
12.5348°
Eccentric anomaly
29.95171°
Mean motion
0.52376 °/min
Orbital period
687.33 mins
BSTAR
0
Loading maneuver chart data...
Computing Atmospheric mass density...
Loading historical data...
Loading historical data...
Loading historical data...
Loading historical data...
Loading historical data...
Loading historical data...
Loading historical data...
Other satellites on launch #41 in the year 2016 (2016-06-24 UTC)

Documentation

Showing up to 5 results
|